Change the Weather History Date:

Thursday, May 2, 2013

  Actual Average Record
Temperature  
Mean Temperature 48 °F -  
Max Temperature 53 °F 56 °F 68 °F (1997)
Min Temperature 44 °F 46 °F 41 °F (2002)
Degree Days  
Heating Degree Days 16    
Moisture  
Dew Point 40 °F    
Average Humidity 68    
Maximum Humidity 82    
Minimum Humidity 51    
Precipitation  
Precipitation 0.00 in - - ()
Sea Level Pressure  
Sea Level Pressure 30.14 in    
Wind  
Wind Speed 8 mph ()    
Max Wind Speed 17 mph    
Max Gust Speed -    
Visibility 6.2 miles    
Events Rain    
Averages and records for this station are not official NWS values.
T = Trace of Precipitation, MM = Missing Value Source: Averaged Metar Reports

Daily Weather History Graph

Daily Weather History Graph

Search for Another Location

Airport or City:

Trip Planner

Search our weather history database for the weather conditions in past years. The results will help you decide how hot, cold, wet, or windy it might be!

Date:

Astronomy

May. 02, 2013 Rise Set
Actual Time 5:23 AM BST 8:55 PM BST
Civil Twilight 4:38 AM BST 9:41 PM BST
Nautical Twilight 3:34 AM BST 10:46 PM BST
Astronomical Twilight 1:33 AM BST 12:36 AM BST
Moon 2:28 AM BST (5/2) 12:05 PM BST (5/2)
Length of Visible Light 17h 03m
Length of Day
15h 31m
Waning Gibbous, 50% of the Moon is Illuminated
May 2
Waning Gibbous
May 2
Last Quarter
May 10
New
May 18
First Quarter
May 25
Full

Hourly Weather History & Observations

Time (BST) Temp. Windchill Dew Point Humidity Pressure Visibility Wind Dir Wind Speed Gust Speed Precip Events Conditions
7:50 AM 44.6 °F 43.1 °F 37.4 °F 76% 30.24 in 6.2 mi ESE 3.5 mph - N/A   Partly Cloudy
8:20 AM 46.4 °F - 37.4 °F 71% 30.24 in 6.2 mi SSE 1.2 mph - N/A   Partly Cloudy
8:50 AM 46.4 °F - 37.4 °F 71% 30.24 in 6.2 mi ESE 1.2 mph - N/A   Partly Cloudy
9:20 AM 46.4 °F 42.4 °F 39.2 °F 76% 30.24 in 6.2 mi SSE 8.1 mph - N/A   Partly Cloudy
9:50 AM 46.4 °F 42.4 °F 39.2 °F 76% 30.24 in 6.2 mi SSE 8.1 mph - N/A   Partly Cloudy
10:20 AM 48.2 °F - 39.2 °F 71% 30.24 in 6.2 mi SSE 8.1 mph - N/A   Partly Cloudy
10:50 AM 48.2 °F - 37.4 °F 66% 30.24 in 6.2 mi South 8.1 mph - N/A   Partly Cloudy
11:20 AM 48.2 °F - 37.4 °F 66% 30.24 in 6.2 mi South 6.9 mph - N/A   Scattered Clouds
11:50 AM 48.2 °F - 37.4 °F 66% 30.21 in 6.2 mi South 9.2 mph - N/A   Scattered Clouds
12:20 PM 50.0 °F - 39.2 °F 66% 30.21 in 6.2 mi SSE 6.9 mph - N/A   Scattered Clouds
12:50 PM 50.0 °F - 37.4 °F 62% 30.21 in 6.2 mi SSW 5.8 mph - N/A   Scattered Clouds
1:20 PM 50.0 °F - 39.2 °F 66% 30.18 in 6.2 mi South 10.4 mph - N/A   Scattered Clouds
1:50 PM 51.8 °F - 37.4 °F 58% 30.18 in 6.2 mi SSW 8.1 mph - N/A   Scattered Clouds
2:20 PM 51.8 °F - 35.6 °F 54% 30.15 in 6.2 mi South 9.2 mph - N/A   Scattered Clouds
2:50 PM 51.8 °F - 35.6 °F 54% 30.15 in 6.2 mi SSW 11.5 mph - N/A   Scattered Clouds
3:20 PM 53.6 °F - 39.2 °F 58% 30.12 in 6.2 mi SSW 13.8 mph - N/A   Mostly Cloudy
3:50 PM 53.6 °F - 35.6 °F 51% 30.12 in 6.2 mi SSW 15.0 mph - N/A   Mostly Cloudy
4:20 PM 53.6 °F - 39.2 °F 58% 30.09 in 6.2 mi SW 17.3 mph - N/A   Mostly Cloudy
4:50 PM 53.6 °F - 41.0 °F 62% 30.09 in 6.2 mi SSW 11.5 mph - N/A   Mostly Cloudy
5:20 PM 53.6 °F - 42.8 °F 67% 30.06 in 6.2 mi SSW 17.3 mph - N/A   Mostly Cloudy
5:50 PM 53.6 °F - 42.8 °F 67% 30.06 in 6.2 mi SSW 17.3 mph - N/A   Mostly Cloudy
6:20 PM 53.6 °F - 42.8 °F 67% 30.06 in 6.2 mi SW 16.1 mph - N/A   Mostly Cloudy
6:50 PM 53.6 °F - 42.8 °F 67% 30.04 in 6.2 mi SW 13.8 mph - N/A   Mostly Cloudy
7:20 PM 51.8 °F - 44.6 °F 76% 30.04 in 6.2 mi WSW 16.1 mph - N/A Rain Light Rain
7:50 PM 51.8 °F - 44.6 °F 76% 30.04 in 6.2 mi WSW 13.8 mph - N/A Rain Light Rain
8:20 PM 50.0 °F - 44.6 °F 82% 30.04 in 6.2 mi SW 16.1 mph - N/A   Mostly Cloudy
8:50 PM 50.0 °F - 44.6 °F 82% 30.01 in 6.2 mi SW 13.8 mph - N/A   Scattered Clouds
9:20 PM 50.0 °F - 44.6 °F 82% 30.01 in 6.2 mi SW 17.3 mph - N/A   Scattered Clouds
9:50 PM 50.0 °F - 44.6 °F 82% 30.01 in 6.2 mi SW 17.3 mph - N/A   Scattered Clouds